| time (UTC) | temp F | wind direction | speed MPH | gust MPH | rain 1hr in | rain 24hr in | rain mn in | humidity % | barometer mb |
| 20260509182817 | 60 | 135 | 0.0 | 0.0 | 0.00 | 0.00 | 0.00 | 74 | 1033.6 |
| 20260509181817 | 60 | 135 | 0.0 | 1.0 | 0.00 | 0.00 | 0.00 | 72 | 1033.7 |
| 20260509180915 | 61 | 180 | 0.0 | 1.0 | 0.00 | 0.00 | 0.00 | 71 | 1033.7 |
| 20260509175816 | 61 | 135 | 0.0 | 1.0 | 0.00 | 0.00 | 0.00 | 69 | 1033.6 |
| 20260509174816 | 61 | 112 | 0.0 | 0.0 | 0.00 | 0.00 | 0.00 | 68 | 1033.6 |
| 20260509171915 | 62 | 135 | 1.0 | 2.0 | 0.00 | 0.00 | 0.00 | 69 | 1033.6 |
| 20260509171816 | 62 | 135 | 0.0 | 2.0 | 0.00 | 0.00 | 0.00 | 69 | 1033.5 |
| 20260509170817 | 61 | 180 | 0.0 | 0.0 | 0.00 | 0.00 | 0.00 | 72 | 1033.8 |
| 20260509165817 | 61 | 124 | 1.0 | 1.0 | 0.00 | 0.00 | 0.00 | 74 | 1033.7 |
| 20260509165718 | 61 | 95 | 0.0 | 1.0 | 0.00 | 0.00 | 0.00 | 73 | 1033.5 |
| 20260509164815 | 61 | 90 | 0.0 | 0.0 | 0.00 | 0.00 | 0.00 | 74 | 1033.6 |
| 20260509163814 | 61 | 178 | 0.0 | 1.0 | 0.00 | 0.00 | 0.00 | 73 | 1033.6 |
| 20260509163716 | 61 | 176 | 0.0 | 2.0 | 0.00 | 0.00 | 0.00 | 73 | 1033.6 |
| 20260509162715 | 62 | 180 | 0.0 | 0.0 | 0.00 | 0.00 | 0.00 | 71 | 1033.6 |
| 20260509160716 | 64 | 337 | 0.0 | 0.0 | 0.00 | 0.00 | 0.00 | 65 | 1033.9 |
| 20260509155714 | 64 | 315 | 0.0 | 0.0 | 0.00 | 0.00 | 0.00 | 62 | 1033.9 |
| 20260509155615 | 64 | 315 | 0.0 | 0.0 | 0.00 | 0.00 | 0.00 | 61 | 1034.1 |
| 20260509154617 | 64 | 131 | 1.0 | 2.0 | 0.00 | 0.00 | 0.00 | 62 | 1034.1 |
| 20260509153716 | 64 | 135 | 0.0 | 2.0 | 0.00 | 0.00 | 0.00 | 65 | 1034.2 |
| 20260509152714 | 64 | 90 | 0.0 | 0.0 | 0.00 | 0.00 | 0.00 | 66 | 1034.4 |
| 20260509151715 | 64 | 90 | 0.0 | 0.0 | 0.00 | 0.00 | 0.00 | 66 | 1034.3 |
| 20260509150730 | 64 | 90 | 0.0 | 0.0 | 0.00 | 0.00 | 0.00 | 63 | 1034.3 |
| 20260509145815 | 64 | 90 | 0.0 | 0.0 | 0.00 | 0.00 | 0.00 | 64 | 1034.3 |
| 20260509144815 | 63 | 90 | 0.0 | 0.0 | 0.00 | 0.00 | 0.00 | 64 | 1034.2 |
| 20260509144716 | 63 | 90 | 0.0 | 0.0 | 0.00 | 0.00 | 0.00 | 64 | 1034.0 |
| 20260509143716 | 63 | 330 | 0.0 | 1.0 | 0.00 | 0.00 | 0.00 | 65 | 1034.1 |
| 20260509142716 | 63 | 247 | 0.0 | 0.0 | 0.00 | 0.00 | 0.00 | 65 | 1034.0 |
| 20260509141716 | 63 | 45 | 0.0 | 0.0 | 0.00 | 0.00 | 0.00 | 66 | 1034.1 |
| 20260509140717 | 63 | 360 | 0.0 | 0.0 | 0.00 | 0.00 | 0.00 | 68 | 1033.8 |
| 20260509135715 | 62 | 90 | 0.0 | 0.0 | 0.00 | 0.00 | 0.00 | 68 | 1033.8 |
| 20260509134714 | 61 | 90 | 0.0 | 2.0 | 0.00 | 0.00 | 0.00 | 68 | 1033.8 |
| 20260509133718 | 61 | 360 | 0.0 | 3.0 | 0.00 | 0.00 | 0.00 | 70 | 1033.9 |
| 20260509132815 | 61 | 225 | 0.0 | 2.0 | 0.00 | 0.00 | 0.00 | 71 | 1033.9 |
| 20260509131832 | 61 | 270 | 0.0 | 0.0 | 0.00 | 0.00 | 0.00 | 71 | 1033.8 |
| 20260509130914 | 60 | 318 | 0.0 | 2.0 | 0.00 | 0.00 | 0.00 | 72 | 1034.0 |
| 20260509125916 | 60 | 270 | 0.0 | 0.0 | 0.00 | 0.00 | 0.00 | 72 | 1034.0 |
| 20260509124914 | 59 | 26 | 0.0 | 5.0 | 0.00 | 0.00 | 0.00 | 73 | 1034.1 |
| 20260509124818 | 59 | 45 | 0.0 | 0.0 | 0.00 | 0.00 | 0.00 | 74 | 1034.0 |
| 20260509123915 | 58 | 45 | 0.0 | 1.0 | 0.00 | 0.00 | 0.00 | 74 | 1034.1 |
| 20260509122915 | 58 | 135 | 0.0 | 4.0 | 0.00 | 0.00 | 0.00 | 74 | 1034.1 |
| 20260509120916 | 56 | 360 | 0.0 | 0.0 | 0.00 | 0.00 | 0.00 | 75 | 1034.0 |
| 20260509120817 | 56 | 360 | 0.0 | 0.0 | 0.00 | 0.00 | 0.00 | 76 | 1034.1 |
| 20260509115816 | 56 | 360 | 0.0 | 0.0 | 0.00 | 0.00 | 0.00 | 76 | 1034.0 |
| 20260509113816 | 55 | 360 | 0.0 | 0.0 | 0.00 | 0.00 | 0.00 | 78 | 1034.2 |
| 20260509112816 | 55 | 22 | 0.0 | 1.0 | 0.00 | 0.00 | 0.00 | 78 | 1034.0 |
| 20260509111815 | 55 | 270 | 0.0 | 0.0 | 0.00 | 0.00 | 0.00 | 78 | 1034.0 |
| 20260509110815 | 54 | 270 | 0.0 | 0.0 | 0.00 | 0.00 | 0.00 | 77 | 1034.0 |
| 20260509105815 | 54 | 270 | 0.0 | 0.0 | 0.00 | 0.00 | 0.00 | 76 | 1033.9 |
| 20260509101915 | 54 | 360 | 0.0 | 0.0 | 0.00 | 0.00 | 0.00 | 75 | 1033.9 |
| 20260509100916 | 54 | 360 | 0.0 | 0.0 | 0.00 | 0.00 | 0.00 | 74 | 1033.9 |
| 20260509095916 | 54 | 360 | 0.0 | 0.0 | 0.00 | 0.00 | 0.00 | 74 | 1033.8 |
| 20260509094917 | 54 | 360 | 0.0 | 0.0 | 0.00 | 0.00 | 0.00 | 73 | 1033.8 |
| 20260509093916 | 54 | 360 | 0.0 | 0.0 | 0.00 | 0.00 | 0.00 | 72 | 1033.8 |
| 20260509092916 | 54 | 360 | 0.0 | 0.0 | 0.00 | 0.00 | 0.00 | 72 | 1033.8 |
| 20260509091915 | 55 | 360 | 0.0 | 0.0 | 0.00 | 0.00 | 0.00 | 71 | 1033.9 |
| 20260509085915 | 55 | 360 | 0.0 | 1.0 | 0.00 | 0.00 | 0.00 | 70 | 1033.9 |
| 20260509084915 | 55 | 360 | 0.0 | 0.0 | 0.00 | 0.00 | 0.00 | 70 | 1033.9 |
| 20260509083915 | 55 | 360 | 0.0 | 0.0 | 0.00 | 0.00 | 0.00 | 69 | 1034.1 |
| 20260509082915 | 55 | 360 | 0.0 | 0.0 | 0.00 | 0.00 | 0.00 | 68 | 1034.1 |
| 20260509081914 | 55 | 360 | 0.0 | 0.0 | 0.00 | 0.00 | 0.00 | 68 | 1034.0 |
| 20260509081815 | 55 | 360 | 0.0 | 0.0 | 0.00 | 0.00 | 0.00 | 68 | 1033.9 |
| 20260509080815 | 54 | 45 | 0.0 | 0.0 | 0.00 | 0.00 | 0.00 | 69 | 1034.1 |
| 20260509074914 | 54 | 135 | 0.0 | 0.0 | 0.00 | 0.00 | 0.00 | 70 | 1034.0 |
| 20260509073915 | 54 | 135 | 0.0 | 0.0 | 0.00 | 0.00 | 0.00 | 69 | 1034.0 |
| 20260509073816 | 54 | 135 | 0.0 | 0.0 | 0.00 | 0.00 | 0.00 | 69 | 1034.1 |
| 20260509072814 | 54 | 180 | 0.0 | 0.0 | 0.00 | 0.00 | 0.00 | 69 | 1034.2 |
| 20260509070914 | 55 | 180 | 0.0 | 0.0 | 0.00 | 0.00 | 0.00 | 69 | 1034.2 |
| 20260509065916 | 55 | 180 | 0.0 | 0.0 | 0.00 | 0.00 | 0.00 | 68 | 1034.4 |
| 20260509063917 | 55 | 135 | 0.0 | 0.0 | 0.00 | 0.00 | 0.00 | 68 | 1034.5 |
| 20260509062916 | 55 | 135 | 0.0 | 0.0 | 0.00 | 0.00 | 0.00 | 66 | 1034.5 |
| 20260509061815 | 55 | 135 | 0.0 | 0.0 | 0.00 | 0.00 | 0.00 | 67 | 1034.8 |
| 20260509060915 | 56 | 135 | 0.0 | 0.0 | 0.00 | 0.00 | 0.00 | 66 | 1034.8 |
| 20260509055014 | 56 | 135 | 0.0 | 0.0 | 0.00 | 0.00 | 0.00 | 66 | 1034.8 |
| 20260509054014 | 56 | 135 | 0.0 | 0.0 | 0.00 | 0.00 | 0.00 | 65 | 1034.9 |
| 20260509053016 | 57 | 135 | 0.0 | 0.0 | 0.00 | 0.00 | 0.00 | 64 | 1035.0 |
| 20260509051915 | 57 | 135 | 0.0 | 0.0 | 0.00 | 0.00 | 0.00 | 64 | 1035.2 |
| 20260509045916 | 57 | 135 | 0.0 | 0.0 | 0.00 | 0.00 | 0.00 | 63 | 1035.1 |
| 20260509043917 | 57 | 135 | 0.0 | 0.0 | 0.00 | 0.00 | 0.00 | 63 | 1035.1 |
| 20260509042915 | 57 | 135 | 0.0 | 0.0 | 0.00 | 0.00 | 0.00 | 63 | 1035.2 |
| 20260509042014 | 57 | 135 | 0.0 | 0.0 | 0.00 | 0.00 | 0.00 | 62 | 1035.1 |
| 20260509041916 | 57 | 135 | 0.0 | 0.0 | 0.00 | 0.00 | 0.00 | 62 | 1035.2 |
| 20260509035919 | 57 | 135 | 0.0 | 0.0 | 0.00 | 0.00 | 0.00 | 60 | 1035.2 |
| 20260509034919 | 57 | 135 | 0.0 | 0.0 | 0.00 | 0.00 | 0.00 | 61 | 1035.1 |
| 20260509033921 | 57 | 135 | 0.0 | 0.0 | 0.00 | 0.00 | 0.00 | 61 | 1035.2 |
| 20260509032919 | 57 | 135 | 0.0 | 0.0 | 0.00 | 0.00 | 0.00 | 60 | 1035.2 |
| 20260509032019 | 57 | 135 | 0.0 | 0.0 | 0.00 | 0.00 | 0.00 | 60 | 1035.2 |
| 20260509030021 | 58 | 135 | 0.0 | 0.0 | 0.00 | 0.00 | 0.00 | 58 | 1035.1 |
| 20260509025020 | 58 | 135 | 0.0 | 0.0 | 0.00 | 0.00 | 0.00 | 58 | 1035.1 |
| 20260509024020 | 58 | 135 | 0.0 | 0.0 | 0.00 | 0.00 | 0.00 | 55 | 1035.2 |
| 20260509023020 | 58 | 135 | 0.0 | 0.0 | 0.00 | 0.00 | 0.00 | 56 | 1035.3 |
| 20260509022918 | 58 | 135 | 0.0 | 0.0 | 0.00 | 0.00 | 0.00 | 56 | 1035.2 |
| 20260509021921 | 59 | 135 | 0.0 | 0.0 | 0.00 | 0.00 | 0.00 | 55 | 1035.1 |
| 20260509021821 | 59 | 135 | 0.0 | 0.0 | 0.00 | 0.00 | 0.00 | 55 | 1035.1 |
| 20260509020919 | 59 | 135 | 0.0 | 0.0 | 0.00 | 0.00 | 0.00 | 53 | 1035.1 |
| 20260509020820 | 59 | 135 | 0.0 | 0.0 | 0.00 | 0.00 | 0.00 | 54 | 1035.1 |
| 20260509015821 | 59 | 135 | 0.0 | 0.0 | 0.00 | 0.00 | 0.00 | 55 | 1035.0 |
| 20260509014819 | 59 | 135 | 0.0 | 0.0 | 0.00 | 0.00 | 0.00 | 52 | 1034.8 |
| 20260509013819 | 59 | 135 | 0.0 | 0.0 | 0.00 | 0.00 | 0.00 | 55 | 1035.0 |
| 20260509012819 | 59 | 135 | 0.0 | 0.0 | 0.00 | 0.00 | 0.00 | 54 | 1034.8 |
| 20260509011819 | 59 | 135 | 0.0 | 0.0 | 0.00 | 0.00 | 0.00 | 52 | 1034.7 |
| 20260509010819 | 59 | 135 | 0.0 | 0.0 | 0.00 | 0.00 | 0.00 | 53 | 1034.5 |
| 20260509005819 | 59 | 135 | 0.0 | 0.0 | 0.00 | 0.00 | 0.00 | 53 | 1034.5 |
| 20260509004820 | 59 | 135 | 0.0 | 0.0 | 0.00 | 0.00 | 0.00 | 53 | 1034.1 |
| 20260509003919 | 59 | 135 | 0.0 | 0.0 | 0.00 | 0.00 | 0.00 | 51 | 1033.9 |
| 20260509002919 | 59 | 135 | 0.0 | 0.0 | 0.00 | 0.00 | 0.00 | 50 | 1033.7 |
| 20260509001919 | 60 | 135 | 0.0 | 0.0 | 0.00 | 0.00 | 0.00 | 47 | 1033.6 |
| 20260509001820 | 60 | 135 | 0.0 | 0.0 | 0.00 | 0.00 | 0.00 | 48 | 1033.7 |
| 20260509001719 | 60 | 135 | 0.0 | 0.0 | 0.00 | 0.00 | 0.00 | 48 | 1033.6 |
| 20260509000719 | 60 | 135 | 0.0 | 0.0 | 0.00 | 0.00 | 0.00 | 48 | 1033.6 |
| 20260508235721 | 60 | 135 | 0.0 | 0.0 | 0.00 | 0.00 | 0.00 | 47 | 1033.5 |
| 20260508234819 | 61 | 135 | 0.0 | 0.0 | 0.00 | 0.00 | 0.00 | 46 | 1033.6 |
| 20260508232920 | 62 | 135 | 0.0 | 0.0 | 0.00 | 0.00 | 0.00 | 46 | 1033.3 |
| 20260508231921 | 62 | 135 | 0.0 | 0.0 | 0.00 | 0.00 | 0.00 | 45 | 1033.2 |
| 20260508230919 | 63 | 135 | 0.0 | 0.0 | 0.00 | 0.00 | 0.00 | 44 | 1033.1 |
| 20260508225920 | 63 | 135 | 0.0 | 0.0 | 0.00 | 0.00 | 0.00 | 44 | 1033.1 |
| 20260508223922 | 64 | 135 | 0.0 | 0.0 | 0.00 | 0.00 | 0.00 | 42 | 1032.9 |
| 20260508222920 | 65 | 135 | 0.0 | 0.0 | 0.00 | 0.00 | 0.00 | 41 | 1033.1 |
| 20260508221935 | 64 | 135 | 0.0 | 0.0 | 0.00 | 0.00 | 0.00 | 40 | 1033.1 |
| 20260508220921 | 65 | 135 | 0.0 | 0.0 | 0.00 | 0.00 | 0.00 | 41 | 1033.0 |
| 20260508215919 | 65 | 135 | 0.0 | 0.0 | 0.00 | 0.00 | 0.00 | 40 | 1033.1 |
| 20260508215820 | 65 | 135 | 0.0 | 0.0 | 0.00 | 0.00 | 0.00 | 40 | 1033.2 |
| 20260508215720 | 65 | 135 | 0.0 | 0.0 | 0.00 | 0.00 | 0.00 | 40 | 1033.2 |
| 20260508214719 | 65 | 135 | 0.0 | 0.0 | 0.00 | 0.00 | 0.00 | 38 | 1033.1 |
| 20260508212722 | 66 | 178 | 0.0 | 1.0 | 0.00 | 0.00 | 0.00 | 35 | 1032.9 |
| 20260508211819 | 66 | 170 | 0.0 | 3.0 | 0.00 | 0.00 | 0.00 | 34 | 1032.9 |
| 20260508210819 | 66 | 52 | 0.0 | 1.0 | 0.00 | 0.00 | 0.00 | 36 | 1033.1 |
| 20260508205818 | 66 | 180 | 0.0 | 1.0 | 0.00 | 0.00 | 0.00 | 35 | 1033.3 |
| 20260508204819 | 66 | 135 | 0.0 | 0.0 | 0.00 | 0.00 | 0.00 | 37 | 1033.3 |
| 20260508202822 | 68 | 180 | 0.0 | 0.0 | 0.00 | 0.00 | 0.00 | 34 | 1033.4 |
| 20260508201820 | 66 | 202 | 0.0 | 1.0 | 0.00 | 0.00 | 0.00 | 34 | 1033.3 |
| 20260508200919 | 66 | 180 | 0.0 | 2.0 | 0.00 | 0.00 | 0.00 | 36 | 1033.3 |
| 20260508195921 | 66 | 152 | 0.0 | 2.0 | 0.00 | 0.00 | 0.00 | 35 | 1033.5 |
| 20260508194920 | 67 | 180 | 0.0 | 0.0 | 0.00 | 0.00 | 0.00 | 33 | 1033.4 |
| 20260508193918 | 67 | 180 | 0.0 | 0.0 | 0.00 | 0.00 | 0.00 | 33 | 1033.5 |
| 20260508191921 | 67 | 178 | 0.0 | 2.0 | 0.00 | 0.00 | 0.00 | 34 | 1033.5 |
| 20260508190920 | 67 | 123 | 2.0 | 9.0 | 0.00 | 0.00 | 0.00 | 33 | 1033.6 |
| 20260508190019 | 67 | 180 | 0.0 | 1.0 | 0.00 | 0.00 | 0.00 | 32 | 1033.5 |
| 20260508184120 | 68 | 236 | 0.0 | 1.0 | 0.00 | 0.00 | 0.00 | 32 | 1033.6 |